Wind_Speed
28 28 28 29 29 30 32 33 34 33 33 31 32 32 32 32 32 33 33 33 33 33 34 34 35 36 37 38 38 39 40 42 43 43 44 45 46 47 48 49 50 50 50 52
28 28 29 29 29 30 30 31 32 33 32 31 32 32 32 32 32 32 33 33 33 33 34 34 34 35 37 37 38 38 39 40 41 42 43 44 45 46 47 48 49 49 50 50
28 28 29 29 28 29 30 30 32 32 31 31 32 32 32 32 32 32 32 32 32 32 33 34 34 35 35 36 37 37 38 40 41 42 42 43 43 44 45 46 46 47 48 48
27 27 28 27 27 28 29 30 32 32 31 31 31 31 31 32 32 32 32 32 32 32 33 34 34 34 35 35 35 36 38 39 40 41 42 43 43 44 44 44 45 45 45 46
28 28 27 25 25 26 28 29 30 31 31 31 31 31 31 32 32 33 33 33 32 32 32 33 33 33 34 35 35 36 37 38 39 40 40 41 42 42 42 43 43 43 43 44
27 28 27 25 25 26 27 27 27 29 30 30 31 31 31 32 32 33 33 33 32 32 32 32 32 32 33 33 34 34 35 36 37 38 39 39 39 40 41 41 41 41 42 42
27 27 26 26 27 27 27 27 27 28 29 29 30 30 30 31 31 31 31 31 31 31 31 32 31 32 32 32 33 33 34 34 35 36 36 37 37 38 39 39 39 40 40 40
27 27 25 26 27 27 27 28 28 28 28 29 29 30 30 30 30 31 31 31 31 31 31 32 31 31 32 32 32 33 33 33 33 34 34 35 35 36 36 37 37 37 37 37
26 26 26 26 26 27 28 28 29 29 28 28 29 29 30 30 30 31 31 31 30 30 30 31 31 31 31 31 31 32 32 32 32 32 32 33 34 34 34 34 34 34 35 35
25 25 26 26 27 27 28 28 28 28 29 29 29 29 28 28 29 29 30 30 29 30 30 30 31 30 30 30 30 30 30 30 31 31 32 32 33 33 33 33 33 33 33 34
25 26 27 27 28 28 28 28 28 28 29 29 29 28 28 27 27 28 29 29 30 30 30 30 30 30 30 30 30 30 30 29 30 30 31 31 31 31 31 31 32 32 32 32
25 26 28 28 28 28 28 28 28 28 29 29 29 29 28 28 27 27 28 28 29 30 30 30 30 30 30 30 30 30 29 30 30 30 30 30 30 30 30 31 30 30 30 31
26 27 27 28 28 28 28 27 28 28 28 29 29 29 28 28 28 27 27 27 27 28 28 29 30 30 30 29 30 30 30 30 30 30 30 30 30 29 29 29 29 29 29 29
27 27 26 27 27 27 27 26 26 26 27 27 27 27 27 27 27 27 27 27 27 27 28 28 29 29 29 29 30 30 30 30 30 30 30 30 29 29 29 29 29 29 28 28
26 26 26 25 25 25 25 25 25 25 25 25 25 25 25 25 25 25 25 25 26 26 26 26 27 27 27 27 28 28 29 29 29 29 29 29 29 29 29 29 28 28 27 27
25 24 24 24 24 24 24 24 24 24 24 24 24 24 24 23 23 23 23 23 23 23 24 24 25 25 25 25 26 26 26 26 26 27 27 27 27 27 27 28 28 27 26 26
24 23 24 23 23 24 24 23 23 23 23 22 22 22 21 21 20 20 21 21 22 22 22 23 23 24 24 25 25 25 25 25 25 25 25 25 25 26 26 26 26 26 25 26
22 22 22 22 22 23 23 23 22 22 21 21 21 20 20 19 19 20 20 21 21 22 22 22 23 23 24 24 24 24 24 24 24 23 23 24 24 24 25 25 25 24 24 24
21 20 20 20 21 22 22 22 21 21 20 20 20 20 19 19 19 19 20 20 21 21 22 22 23 24 24 25 25 24 24 24 23 23 23 23 23 23 24 23 23 23 23 23
19 19 19 20 20 20 20 20 20 19 19 19 19 19 19 19 19 20 20 20 21 21 21 22 23 23 24 24 24 24 24 23 23 23 23 23 23 23 22 22 22 21 21 20
20 20 20 20 20 20 19 18 18 18 18 18 19 19 19 19 19 20 20 21 21 21 21 22 22 22 22 22 23 22 22 22 22 23 22 22 22 21 21 21 21 20 19 19
20 20 20 20 20 19 18 18 18 18 18 18 18 18 19 19 19 20 20 21 21 21 21 21 21 21 21 21 21 21 21 21 21 21 21 20 20 20 20 20 20 19 18 18
18 18 18 18 18 18 18 18 18 17 17 17 17 18 18 19 19 20 19 19 20 20 20 20 20 20 21 21 21 20 20 20 20 20 19 19 19 19 19 18 18 18 17 17
18 18 18 18 17 17 17 16 16 16 16 16 17 17 17 18 18 18 18 18 18 18 18 19 19 19 20 20 19 18 18 18 18 18 17 17 17 17 17 16 16 17 17 16
18 18 17 17 17 17 16 16 16 16 16 16 16 16 17 17 17 17 17 17 17 18 18 18 18 18 18 18 17 16 16 16 17 17 16 16 16 16 16 16 16 15 15 14
18 18 17 17 17 16 16 15 15 16 16 16 16 16 16 16 16 16 16 17 17 17 17 17 17 17 16 16 16 16 16 16 16 16 16 15 15 16 15 14 13 13 13 13
18 18 17 17 16 16 16 16 16 16 16 17 17 17 17 17 17 17 16 16 16 16 16 16 16 16 16 16 16 15 15 15 15 15 15 15 15 14 13 13 12 12 12 12
Wind_Direction
264 264 265 264 262 262 263 264 266 267 269 270 270 271 271 271 271 271 270 270 270 269 268 266 265 264 265 265 266 266 265 266 267 268 269 269 269 268 268 268 268 268 268 267
264 265 266 267 264 265 265 266 268 268 269 270 270 271 271 271 270 271 271 270 269 269 268 267 266 265 266 266 266 267 267 267 268 269 270 270 270 270 269 269 269 269 269 268
268 268 269 268 268 268 267 268 268 269 269 268 269 271 271 272 270 270 271 270 270 270 269 268 267 266 266 267 268 269 269 269 270 271 271 272 271 271 270 270 270 270 270 270
270 270 270 272 271 270 269 269 270 269 268 269 270 270 271 271 269 270 270 270 271 271 270 270 269 268 267 267 268 270 271 272 273 273 273 273 272 272 271 271 271 272 271 271
271 272 272 273 274 272 272 270 270 270 269 270 270 271 271 272 271 270 270 271 271 271 271 271 271 269 269 269 270 272 272 274 274 274 274 274 273 273 273 274 274 273 273 272
272 273 274 275 275 274 274 272 270 270 271 272 272 273 273 273 272 271 270 271 271 271 272 272 272 270 270 271 272 274 274 275 276 276 276 275 275 275 275 275 275 275 274 273
271 273 274 276 276 276 275 275 273 273 274 275 275 275 275 273 272 271 271 271 271 271 271 273 273 272 271 272 273 275 277 277 277 276 276 277 277 278 278 277 277 276 274 273
272 273 276 277 277 276 277 277 276 276 277 277 277 276 275 274 273 271 271 271 272 272 273 273 274 273 273 274 275 277 278 278 278 278 278 279 279 280 280 280 279 277 275 274
272 274 276 278 278 277 277 278 278 277 277 277 278 278 278 276 274 272 271 271 271 273 274 274 274 274 274 275 277 278 278 278 278 280 280 281 281 281 281 281 281 279 277 275
272 274 276 277 277 279 280 280 279 278 278 277 279 280 279 277 275 273 272 271 272 273 274 274 274 274 275 276 278 278 279 279 280 281 281 282 283 282 282 282 281 280 280 278
273 275 276 276 277 279 281 282 281 279 279 279 279 279 278 277 276 274 272 272 272 273 273 274 274 275 275 277 277 278 279 281 282 283 283 282 282 282 282 282 283 282 281 279
275 276 277 276 276 278 281 283 283 280 279 279 279 279 278 277 277 275 274 273 273 273 273 274 275 276 277 277 278 278 279 281 283 283 284 283 283 283 283 284 284 284 282 281
277 278 277 276 276 278 281 282 282 281 279 279 279 278 278 277 277 275 275 274 274 273 274 275 275 276 277 277 278 279 280 282 282 284 285 284 283 283 284 285 285 285 284 281
278 278 278 279 279 281 281 282 282 283 283 281 280 278 278 277 277 276 275 274 274 274 275 275 275 276 277 278 279 280 280 281 283 284 285 284 283 284 285 285 285 285 283 281
279 279 280 281 282 282 282 282 282 283 284 283 282 280 280 279 278 276 275 275 275 276 275 275 275 277 278 280 281 281 281 282 283 285 286 286 284 284 285 285 285 284 283 282
280 280 279 280 282 282 282 282 282 282 283 283 282 282 282 282 281 278 277 277 278 278 277 276 277 277 278 281 283 283 283 283 284 286 287 287 287 287 286 286 286 285 283 282
283 281 279 279 280 282 283 283 283 283 282 282 283 283 283 283 283 282 280 280 281 281 281 280 280 279 281 283 284 285 284 284 285 287 288 289 290 289 289 289 288 286 284 283
283 283 282 282 282 282 282 282 282 283 283 282 283 284 283 283 284 284 284 284 284 284 284 284 282 282 284 285 286 285 284 284 286 287 288 290 291 292 293 293 291 288 287 285
284 285 286 286 287 285 283 281 281 283 282 281 282 284 284 284 285 287 288 288 286 285 285 284 284 285 284 285 285 284 284 285 286 287 289 290 291 293 295 295 293 290 289 288
284 285 287 289 290 288 285 283 282 283 282 281 281 282 282 283 286 288 290 290 288 287 287 286 286 287 286 286 286 285 285 285 285 286 288 290 291 293 295 296 295 294 292 290
284 284 286 289 289 288 286 284 284 284 283 282 282 282 283 284 286 289 291 291 290 289 289 289 288 288 288 289 288 287 286 286 285 285 287 289 291 293 294 294 295 296 294 292
286 284 284 286 287 285 285 285 286 286 286 285 285 285 286 287 288 290 292 292 291 290 290 290 291 291 292 291 290 289 288 286 285 286 286 288 290 291 293 294 294 294 295 294
286 286 285 286 286 286 285 285 285 286 286 287 287 288 289 290 291 292 292 293 293 293 293 293 294 294 294 294 292 291 290 288 287 287 286 286 288 290 293 295 295 294 295 297
286 286 285 285 286 287 286 286 286 287 287 289 289 289 290 291 291 292 293 293 294 295 296 296 296 297 298 297 295 293 290 288 287 287 286 286 286 290 294 296 297 298 297 298
286 286 285 285 285 285 284 284 285 285 287 290 291 291 291 291 291 291 293 294 295 296 297 298 299 300 300 299 297 295 292 289 289 288 286 284 286 290 294 296 298 298 298 299
288 286 284 283 282 282 283 283 284 285 287 289 291 292 293 292 292 292 293 295 296 297 298 299 301 302 301 300 299 298 294 290 288 288 286 284 286 290 292 294 296 297 298 300
287 285 283 281 281 281 282 282 284 285 287 289 289 289 290 292 291 292 293 295 296 297 299 300 301 301 299 300 300 298 295 291 288 288 287 285 285 287 288 289 290 294 298 300
Height
5578 5578 5578 5579 5580 5579 5579 5580 5580 5582 5583 5584 5583 5582 5582 5582 5582 5581 5581 5581 5581 5581 5580 5580 5580 5580 5580 5581 5581 5581 5582 5582 5583 5583 5583 5583 5582 5582 5582 5582 5582 5582 5582 5582
5570 5570 5570 5570 5571 5572 5572 5572 5572 5573 5574 5575 5574 5573 5573 5573 5573 5572 5572 5572 5571 5571 5571 5571 5571 5571 5571 5571 5571 5571 5571 5571 5571 5571 5571 5570 5570 5569 5569 5569 5569 5569 5569 5569
5563 5563 5562 5563 5565 5565 5565 5565 5564 5564 5567 5565 5565 5564 5564 5564 5564 5563 5563 5563 5562 5562 5562 5562 5561 5561 5561 5561 5561 5561 5561 5561 5560 5560 5559 5558 5558 5557 5557 5556 5556 5556 5555 5555
5556 5556 5556 5560 5558 5557 5557 5557 5556 5556 5556 5556 5556 5556 5555 5555 5555 5554 5554 5554 5554 5553 5553 5552 5552 5552 5552 5552 5551 5551 5550 5550 5549 5549 5548 5547 5546 5545 5545 5544 5544 5543 5542 5542
5549 5548 5549 5552 5551 5549 5548 5549 5548 5547 5548 5547 5547 5547 5547 5546 5546 5545 5545 5545 5545 5544 5543 5543 5542 5542 5542 5542 5542 5541 5540 5539 5538 5538 5537 5536 5535 5534 5533 5532 5532 5531 5530 5529
5542 5541 5542 5545 5543 5541 5541 5541 5541 5539 5539 5539 5539 5539 5540 5538 5537 5536 5536 5536 5536 5535 5535 5534 5533 5533 5533 5533 5532 5531 5530 5529 5528 5527 5526 5525 5524 5523 5522 5520 5519 5518 5517 5517
5535 5534 5536 5538 5536 5534 5535 5535 5533 5532 5532 5531 5530 5530 5530 5529 5528 5527 5527 5527 5527 5527 5526 5525 5525 5524 5524 5523 5523 5522 5521 5519 5518 5517 5516 5515 5514 5512 5511 5509 5508 5507 5506 5505
5529 5529 5532 5530 5528 5528 5527 5526 5525 5525 5524 5523 5522 5521 5521 5520 5519 5519 5519 5518 5518 5518 5517 5517 5516 5516 5515 5515 5514 5513 5512 5510 5509 5507 5506 5505 5504 5502 5500 5499 5498 5496 5495 5494
5524 5525 5524 5522 5521 5520 5519 5519 5518 5517 5516 5515 5514 5513 5512 5511 5511 5510 5510 5510 5509 5509 5509 5508 5508 5507 5507 5506 5505 5504 5503 5501 5500 5499 5497 5496 5494 5493 5491 5489 5488 5486 5485 5484
5517 5517 5516 5515 5514 5513 5512 5511 5510 5509 5508 5508 5507 5505 5504 5503 5502 5501 5501 5501 5501 5501 5500 5500 5499 5498 5498 5497 5496 5495 5494 5493 5492 5490 5489 5487 5485 5483 5481 5480 5478 5476 5475 5474
5510 5510 5509 5508 5507 5506 5505 5503 5503 5502 5501 5499 5498 5497 5496 5495 5494 5493 5492 5492 5492 5492 5491 5491 5490 5489 5489 5488 5488 5487 5486 5484 5483 5482 5480 5478 5476 5474 5472 5470 5468 5467 5465 5464
5503 5503 5501 5501 5500 5499 5497 5496 5495 5494 5493 5491 5490 5489 5488 5487 5486 5485 5484 5484 5484 5483 5483 5482 5482 5481 5480 5480 5479 5478 5477 5476 5475 5473 5471 5469 5467 5466 5463 5461 5459 5457 5456 5454
5495 5494 5493 5493 5492 5491 5490 5489 5487 5486 5485 5484 5482 5481 5480 5479 5478 5477 5476 5476 5475 5475 5474 5474 5473 5472 5472 5471 5470 5469 5469 5467 5466 5464 5462 5460 5459 5457 5455 5453 5450 5448 5447 5445
5488 5487 5486 5485 5485 5484 5482 5481 5479 5478 5477 5475 5474 5473 5472 5471 5470 5469 5469 5468 5467 5467 5466 5466 5465 5464 5463 5463 5462 5461 5459 5458 5457 5455 5453 5452 5450 5448 5446 5444 5442 5440 5438 5436
5480 5479 5478 5478 5477 5476 5475 5473 5472 5471 5469 5468 5466 5465 5464 5463 5462 5461 5461 5460 5460 5459 5458 5458 5457 5456 5455 5454 5453 5452 5451 5450 5448 5447 5445 5443 5441 5439 5437 5435 5433 5431 5430 5428
5473 5472 5471 5470 5470 5469 5467 5466 5465 5464 5462 5461 5459 5458 5457 5456 5455 5454 5453 5453 5452 5451 5451 5450 5449 5448 5448 5447 5445 5444 5443 5442 5440 5439 5437 5435 5433 5431 5429 5427 5425 5423 5421 5419
5466 5465 5464 5463 5463 5462 5461 5460 5458 5457 5455 5454 5453 5452 5451 5450 5449 5448 5447 5446 5446 5445 5444 5443 5442 5441 5440 5439 5438 5437 5436 5434 5433 5431 5429 5427 5425 5423 5421 5419 5416 5414 5412 5410
5460 5459 5458 5457 5456 5455 5454 5453 5452 5450 5449 5448 5447 5446 5445 5444 5443 5442 5441 5440 5440 5438 5437 5436 5435 5434 5433 5432 5431 5430 5428 5427 5426 5424 5422 5420 5418 5416 5413 5411 5408 5406 5404 5402
5454 5453 5452 5451 5450 5449 5448 5446 5445 5444 5443 5442 5441 5440 5439 5438 5437 5437 5436 5435 5433 5432 5431 5430 5428 5427 5426 5425 5424 5422 5421 5420 5418 5417 5415 5413 5411 5409 5407 5404 5401 5399 5397 5395
5448 5448 5447 5445 5444 5443 5442 5440 5439 5438 5437 5436 5435 5434 5433 5433 5432 5431 5430 5428 5427 5426 5424 5423 5422 5420 5419 5418 5416 5415 5414 5413 5411 5410 5408 5407 5405 5402 5400 5398 5395 5393 5391 5389
5443 5442 5441 5440 5439 5437 5436 5435 5434 5433 5431 5430 5429 5429 5428 5427 5426 5425 5424 5422 5421 5420 5418 5417 5415 5414 5412 5411 5409 5408 5407 5405 5404 5403 5402 5400 5398 5396 5394 5392 5390 5388 5386 5384
5437 5436 5435 5434 5433 5432 5431 5430 5429 5427 5426 5425 5424 5423 5422 5421 5420 5419 5418 5416 5415 5413 5412 5410 5409 5407 5406 5404 5403 5401 5400 5399 5398 5396 5395 5394 5392 5390 5389 5387 5385 5383 5381 5379
5431 5430 5429 5428 5427 5426 5425 5424 5423 5422 5421 5420 5419 5418 5417 5416 5415 5413 5412 5411 5409 5407 5406 5404 5403 5401 5399 5398 5396 5395 5394 5392 5391 5390 5389 5388 5386 5385 5383 5381 5379 5378 5376 5375
5426 5425 5424 5423 5422 5421 5420 5419 5418 5417 5416 5415 5414 5413 5411 5410 5409 5408 5406 5405 5403 5402 5400 5398 5397 5395 5393 5392 5390 5389 5388 5387 5386 5384 5383 5382 5381 5380 5378 5376 5375 5373 5371 5370
5420 5419 5418 5417 5416 5416 5415 5414 5413 5412 5411 5410 5409 5407 5406 5405 5404 5403 5401 5400 5398 5397 5395 5393 5391 5390 5388 5386 5385 5384 5382 5381 5380 5379 5378 5377 5376 5375 5373 5372 5370 5369 5367 5366
5415 5414 5413 5412 5411 5410 5409 5409 5408 5407 5406 5405 5404 5402 5401 5400 5399 5397 5396 5394 5393 5391 5390 5388 5386 5385 5383 5382 5380 5379 5378 5376 5375 5374 5373 5372 5371 5370 5369 5367 5366 5365 5363 5362
5409 5408 5407 5407 5406 5405 5404 5404 5403 5402 5401 5400 5399 5397 5396 5395 5393 5392 5391 5389 5388 5386 5385 5383 5382 5380 5379 5377 5376 5374 5373 5372 5371 5370 5368 5367 5366 5365 5364 5363 5362 5361 5360 5359